Location: Crescent
(42.8242°N, 73.7329°W)
Time: 05:09:36
(UTC+00:00)

Vanguard 2 Rocket - Pass Details

Date: 23 February 2026
Orbit: 553 x 3286 km, 32.9° (Epoch: 13 March)

Event Time Altitude Azimuth Distance (km) Brightness Sun altitude
Rises 21:08:47 0° 277° (W) 6,909 12.3 14.3°
Reaches altitude 10° 21:14:28 10° 270° (W) 5,559 12.2 13.4°
Maximum altitude 21:27:16 33° 215° (SW) 3,025 10.6 11.3°
Drops below altitude 10° 21:35:35 10° 156° (SSE) 3,561 10.0 9.9°
Sets 21:38:21 0° 146° (SE) 4,209 10.2 9.4°
